Baltimore, MD

3:48 PM EST on December 02, 2016 (GMT -0500)
Baltimore-Washington International

Weather History for KBWI - April, 2014

Change the Weather History Date:

Monday, April 28, 2014

  Actual Average Record
Temperature  
Mean Temperature 54 °F 58 °F  
Max Temperature 60 °F 69 °F 90 °F (1957)
Min Temperature 48 °F 46 °F 33 °F (1998)
Degree Days  
Heating Degree Days 11 8  
Month to date heating degree days 336 338  
Since 1 July heating degree days 4906 4599  
Cooling Degree Days 0 1  
Month to date cooling degree days 7 10  
Year to date cooling degree days 7 11  
Growing Degree Days 4 (Base 50)    
Moisture  
Dew Point 41 °F    
Average Humidity 70    
Maximum Humidity 100    
Minimum Humidity 40    
Precipitation  
Precipitation 0.32 in 0.11 in 1.43 in (2002)
Month to date precipitation 4.30 2.98  
Year to date precipitation 15.97 12.83  
Snow  
Snow 0.00 in 0.00 in 0.10 in (1898)
Month to date snowfall T 0.0  
Since 1 July snowfall 39.0 20.1  
Snow Depth 0.00 in    
Sea Level Pressure  
Sea Level Pressure 30.07 in    
Wind  
Wind Speed 6 mph (East)    
Max Wind Speed 13 mph    
Max Gust Speed 17 mph    
Visibility 8 miles    
Events Rain    
T = Trace of Precipitation, MM = Missing Value Source: NWS Daily Summary

Daily Weather History Graph

Daily Weather History Graph

Search for Another Location

Airport or City:

Trip Planner

Search our weather history database for the weather conditions in past years. The results will help you decide how hot, cold, wet, or windy it might be!

Date:

Astronomy

Apr. 28, 2014 Rise Set
Actual Time 6:12 AM EDT 7:56 PM EDT
Civil Twilight 5:43 AM EDT 8:25 PM EDT
Nautical Twilight 5:08 AM EDT 9:00 PM EDT
Astronomical Twilight 4:31 AM EDT 9:37 PM EDT
Moon 5:48 AM EDT (4/28) 7:32 PM EDT (4/28)
Length of Visible Light 14h 42m
Length of Day
13h 44m
Waning Crescent, 0% of the Moon is Illuminated
Apr 28
Waning Crescent
Apr 29
New
May 6
First Quarter
May 14
Full
May 21
Last Quarter

Hourly Weather History & Observations

Time (EDT) Temp. Dew Point Humidity Pressure Visibility Wind Dir Wind Speed Gust Speed Precip Events Conditions
12:54 AM 48.9 °F 37.9 °F 66% 30.12 in 10.0 mi North 4.6 mph - N/A   Scattered Clouds
1:54 AM 52.0 °F 34.0 °F 50% 30.10 in 10.0 mi NE 10.4 mph - N/A   Scattered Clouds
2:54 AM 50.0 °F 33.1 °F 52% 30.09 in 10.0 mi NE 9.2 mph - N/A   Scattered Clouds
3:54 AM 48.2 °F 33.8 °F 58% 30.10 in 10.0 mi NNE 9.2 mph - N/A   Mostly Cloudy
4:54 AM 48.9 °F 35.1 °F 59% 30.10 in 10.0 mi NNE 5.8 mph - N/A   Mostly Cloudy
5:54 AM 48.9 °F 34.0 °F 56% 30.11 in 10.0 mi NE 8.1 mph - N/A   Mostly Cloudy
6:54 AM 48.9 °F 34.0 °F 56% 30.11 in 10.0 mi NE 10.4 mph - N/A   Mostly Cloudy
7:54 AM 51.1 °F 33.1 °F 50% 30.13 in 10.0 mi ENE 12.7 mph - N/A   Mostly Cloudy
8:54 AM 51.1 °F 35.1 °F 54% 30.12 in 10.0 mi ENE 9.2 mph - N/A   Mostly Cloudy
9:54 AM 53.1 °F 36.0 °F 52% 30.13 in 10.0 mi East 5.8 mph - N/A   Mostly Cloudy
10:54 AM 55.9 °F 37.0 °F 49% 30.11 in 10.0 mi East 9.2 mph - N/A   Mostly Cloudy
11:54 AM 57.9 °F 37.9 °F 47% 30.09 in 10.0 mi NE 8.1 mph - N/A   Mostly Cloudy
12:54 PM 59.0 °F 37.9 °F 46% 30.06 in 10.0 mi ENE 8.1 mph - N/A   Mostly Cloudy
1:54 PM 59.0 °F 37.9 °F 46% 30.04 in 10.0 mi SE 6.9 mph - N/A   Overcast
2:54 PM 59.0 °F 37.9 °F 46% 30.05 in 10.0 mi SSE 4.6 mph - N/A   Overcast
3:54 PM 59.0 °F 36.0 °F 42% 30.03 in 10.0 mi Variable 5.8 mph - N/A   Overcast
4:54 PM 57.2 °F 42.8 °F 59% 30.02 in 10.0 mi South 4.6 mph - N/A Rain Light Rain
5:54 PM 55.0 °F 45.0 °F 69% 30.02 in 10.0 mi Calm Calm - 0.00 in Rain Light Rain
6:54 PM 53.1 °F 46.9 °F 80% 30.04 in 9.0 mi Calm Calm - 0.02 in Rain Light Rain
7:54 PM 51.1 °F 48.0 °F 89% 30.04 in 5.0 mi Calm Calm - 0.04 in Rain Light Rain
8:37 PM 50.0 °F 48.2 °F 94% 30.05 in 2.5 mi Calm Calm - 0.07 in Rain Rain
8:44 PM 50.0 °F 48.2 °F 94% 30.05 in 3.0 mi SE 4.6 mph - 0.09 in Rain Light Rain
8:54 PM 50.0 °F 48.0 °F 93% 30.06 in 3.0 mi SSE 5.8 mph - 0.11 in Rain Light Rain
9:52 PM 50.0 °F 48.2 °F 94% 30.06 in 4.0 mi Calm Calm - 0.08 in Rain Light Rain
9:54 PM 48.9 °F 48.0 °F 97% 30.06 in 4.0 mi Calm Calm - 0.08 in Rain Light Rain
10:44 PM 48.2 °F 48.2 °F 100% 30.05 in 4.0 mi ESE 4.6 mph - 0.03 in Rain Light Rain
10:54 PM 50.0 °F 48.9 °F 96% 30.06 in 5.0 mi ESE 3.5 mph - 0.04 in Rain Light Rain
10:55 PM 50.0 °F 48.2 °F 94% 30.06 in 5.0 mi East 3.5 mph - 0.00 in Rain Light Rain
11:11 PM 50.0 °F 48.2 °F 94% 30.06 in 5.0 mi ESE 3.5 mph - 0.00 in   Light Drizzle
11:54 PM 48.9 °F 48.0 °F 97% 30.07 in 3.0 mi SE 8.1 mph - 0.02 in Rain Light Rain